Reflectivity
-20 -20 -20 -20 -20 -20 -20 -20 -20 -20 -20 -20 -20 -20 -20 -20 -20 -20 -20 -20 -20 -20 -20 -20 -6 -19 -20 -20 -20 -20 -20 -20 -20 -20 -20 -20 -20 -20 -20 -20 -20 -20 -20 -20 -20
-20 -20 -20 -20 -20 -20 -20 -20 -20 -20 -20 -20 -20 -20 -20 -20 -20 -20 -20 -20 -20 -20 -20 -20 15 16 -20 -6 -20 -20 -20 -20 -20 -20 -20 -20 -20 -20 -20 -20 -20 -20 -20 -20 -20
-20 -20 -20 -20 -20 -20 -20 -20 -20 -20 -20 -20 -20 -20 -20 -20 -20 -20 -20 -20 -20 -20 -20 -20 -6 -8 -8 -20 -20 -20 -20 -16 -20 -20 -20 -20 -20 -20 -20 -20 -20 -20 -20 -20 -20
-20 -20 -20 -20 -20 -20 -20 -20 -20 -20 -20 -20 -20 -20 -20 -20 -20 -20 -20 -20 -20 -20 -20 -20 -20 -18 -6 -18 -18 -20 -20 -20 -20 -20 -20 -20 -20 -20 -20 -20 -20 -20 -20 -20 -20
-20 -20 -20 -20 -20 -20 -20 -20 -20 -20 -20 -20 -20 -20 -20 -20 -20 -20 -20 -20 -20 -19 8 13 -20 -2 14 -20 -20 -20 -20 -20 -7 -20 -20 -20 -20 -20 -20 -20 -20 -20 -20 -20 -20
-20 -20 -20 -20 -20 -20 -20 -20 -20 -20 -20 -20 -20 -20 -20 -20 -20 -20 -20 -20 -20 -15 -20 -20 -20 -20 -15 -10 27 -10 -20 -20 1 -20 -20 -20 -20 -20 -20 -20 -20 -20 -20 -20 -20
-20 -20 -20 -20 -20 -20 -20 -20 -20 -20 -20 -20 -20 -20 -20 -20 -20 -20 -20 -20 -20 -20 -20 -20 -20 -20 8 -20 -20 24 -12 -20 -1 -17 -20 -20 -20 -20 -20 -20 -20 -20 -20 -20 -20
-20 -20 -20 -20 -20 -20 -20 -20 -20 -20 -20 -20 -20 -20 -20 -20 -20 -20 -20 -20 -20 -20 -20 -20 5 -17 -11 -20 -20 -15 -19 -20 -20 -19 -20 -20 -20 -20 -20 -20 -20 -20 -20 -20 -20
-20 -20 -20 -20 -20 -20 -20 -20 -20 -20 -20 -20 -20 -20 -20 -20 -20 -20 -20 -20 -20 -20 -20 -18 18 -19 -15 -20 -19 4 -11 -20 -20 -20 -20 -20 -20 -20 -20 -20 -20 -20 -20 -20 -20
-20 -20 -20 -20 -20 -20 -20 -20 -20 -20 -20 -20 -20 -20 -20 -20 -20 -20 -20 -20 -20 -20 -20 -20 9 -12 -20 -13 1 16 0 -20 -20 -20 -11 -20 -20 -20 -20 -20 -20 -20 -20 -20 -20
-20 -20 -20 -20 -20 -20 -20 -20 -20 -20 -20 -20 -20 -20 -20 -20 -20 -20 -20 -20 -20 -20 -20 -20 -20 -20 -20 -20 -20 -20 -20 -20 11 -20 -10 4 -20 -20 -20 -20 -20 -20 -20 -20 -20
-20 -20 -20 -20 -20 -20 -20 -20 -20 -20 -20 -20 -20 -20 -20 -20 -20 -20 -20 -20 -20 -20 -20 -20 -20 -20 -20 -20 -14 -20 -20 -20 -20 -20 -14 -20 -16 -20 -20 -20 -20 -20 -20 -20 -20
-20 -20 -20 -20 -20 -20 -20 -20 -20 -20 -20 -20 -20 -20 -20 -20 -20 -20 -20 -20 -20 -20 -20 -20 -20 -20 -20 -20 -20 -20 -16 -11 5 -18 14 5 -14 -20 -20 -20 -20 -20 -20 -20 -20
-20 -20 -20 -20 -20 -20 -20 -20 -20 -20 -20 -20 -20 -20 -20 -20 -20 -20 -20 -20 -20 -20 -20 -20 -20 -20 -20 9 -20 -20 -20 -12 23 8 10 -20 -20 -20 -20 -20 -20 -20 -20 -20 -20
-20 -20 -20 -20 -20 -20 -20 -20 -20 -20 -20 -20 -20 -20 -20 -20 -20 -20 -20 -20 -20 -20 -20 -20 -20 -20 14 -20 -20 16 -20 -20 3 18 -20 -20 -19 -20 -20 -20 -20 -20 -20 -20 -20
-20 -20 -20 -20 -20 -20 -20 -20 -20 -20 -20 -20 -20 -20 -20 -20 -20 -20 -20 -20 -20 -20 -20 -20 -20 -20 11 15 -20 -20 -20 -11 -2 12 -16 -12 -8 -20 -20 -20 -20 -20 -20 -20 -20
-20 -20 -20 -20 -20 -20 -20 -20 -20 -20 -20 -20 -20 -20 -20 -20 -20 -20 -20 -20 -20 -20 -20 -20 -20 -7 11 -15 -20 -20 -20 6 -20 -9 -20 -20 -20 -20 -20 -20 -20 -20 -20 -20 -20
-20 -20 -20 -20 -20 -20 -20 -20 -20 -20 -20 -20 -20 -20 -20 -20 -20 -20 -20 -20 -20 -20 -20 -20 -20 -20 -19 -10 -20 -20 -20 -20 -20 -20 -20 -20 -20 -20 -20 -20 -20 -20 -20 -20 -20
-20 -20 -20 -20 -20 -20 -20 -20 -20 -20 -20 -20 -20 -20 -20 -20 -20 -20 -20 -20 -20 -20 -20 -20 -20 -19 -20 -20 -20 -20 -20 -20 -20 -20 -20 -20 -20 -20 -20 -20 -20 -20 -20 -20 -20
-20 -20 -20 -20 -20 -20 -20 -20 -20 -20 -20 -20 -20 -20 -20 -20 -20 -20 -20 -20 -20 -20 -20 -20 -20 -20 -20 -20 -20 -11 -19 -2 13 -20 -20 -20 -20 -20 -20 -20 -20 -20 -20 -20 -20
-20 -20 -20 -20 -20 -20 -20 -20 -20 -20 -20 -20 -20 -20 -20 -20 -20 -20 -20 -20 -20 -20 -20 -20 -20 -20 -20 -20 -20 -20 -4 8 -20 -20 -20 -20 -20 -20 -20 -20 -20 -20 -20 -20 -20
-20 -20 -20 -20 -20 -20 -20 -20 -20 -20 -20 -20 -20 -20 -20 -20 -20 -20 -20 -20 -20 -20 -20 -20 -20 -20 -20 -20 -14 -20 -20 -20 -7 -20 -20 -20 -20 -20 -20 -20 -20 -20 -20 -20 -20
-20 -20 -20 -20 -20 -20 -20 -20 -20 -20 -20 -20 -20 -20 -20 -20 -20 -20 -20 -20 -20 -20 -20 -20 -20 -20 -20 -20 -12 -20 -17 15 -0 -20 -20 -20 -20 -20 -20 -20 -20 -20 -20 -20 -20
-20 -20 -20 -20 -20 -20 -20 -20 -20 -20 -20 -20 -20 -20 -20 -20 -20 -20 -20 -20 -20 -20 -20 -20 -20 -20 -20 -20 -20 -17 -20 -18 -20 -20 -20 -20 -20 -20 -20 -20 -20 -20 -20 -20 -20
-20 -20 -20 -20 -20 -20 -20 -20 -20 -20 -20 -20 -20 -20 -20 -20 -20 -20 -20 -20 -20 -20 -20 -20 -20 -20 -20 -20 -20 -20 -20 -20 -20 -20 -20 -20 -20 -20 -20 -20 -20 -20 -20 -20 -20
-20 -20 -20 -20 -20 -20 -20 -20 -20 -20 -20 -20 -20 -20 -20 -20 -20 -20 -20 -20 -20 -20 -20 -20 -20 -20 -20 -20 -20 -20 -20 -20 -20 -20 -20 -20 -20 -20 -20 -20 -20 -20 -20 -20 -20
-20 -20 -20 -20 -20 -20 -20 -20 -20 -20 -20 -20 -20 -20 -20 -20 -20 -20 -20 -20 -20 -20 -20 -20 -20 -20 -20 -20 -20 -20 -20 -20 -20 -20 -20 -20 -20 -20 -20 -20 -20 -20 -20 -20 -20
Wind_Speed
19 20 20 20 21 21 21 21 22 21 21 21 21 19 19 19 20 3 4 12 14 20 5 9 12 6 4 5 4 3 3 4 7 8 5 12 20 9 14 19 11 3 15 17 23
19 20 21 22 22 21 21 21 21 22 21 21 20 19 19 17 4 7 6 33 24 24 9 8 10 7 4 1 2 3 2 7 5 9 10 11 23 18 15 14 14 13 17 19 24
20 21 22 22 23 23 22 22 21 22 22 21 20 18 18 12 4 9 13 34 29 23 11 9 5 8 2 3 2 3 4 9 11 9 12 16 20 19 20 14 18 17 21 18 19
21 21 22 22 23 23 23 22 22 22 22 21 19 19 18 2 4 3 13 31 30 11 9 9 6 3 5 1 2 5 9 4 7 8 14 17 20 13 15 13 15 14 8 11 14
21 21 21 22 23 23 23 22 21 21 21 20 18 15 4 2 10 3 9 21 17 10 7 6 8 6 3 3 2 4 8 8 7 10 13 16 13 13 16 16 14 11 10 10 14
18 19 20 21 23 23 24 23 22 22 21 19 15 11 2 3 6 4 7 9 7 7 7 8 10 14 5 5 5 8 10 5 10 12 20 22 18 13 13 14 14 14 11 7 14
19 19 20 22 23 25 25 25 25 24 22 17 11 3 1 15 3 6 2 4 4 9 5 6 11 7 6 5 3 3 5 6 6 4 13 16 12 12 15 14 14 14 9 10 14
19 20 21 23 24 25 26 27 27 26 19 10 4 2 9 7 3 7 3 7 10 4 5 10 9 7 5 8 4 4 4 5 1 1 1 10 6 11 14 14 10 9 7 13 11
19 20 22 23 24 25 27 30 30 19 7 5 2 3 12 11 5 10 9 7 4 5 9 12 5 4 3 4 5 7 5 1 5 4 8 6 6 12 10 9 6 9 11 11 8
20 22 23 24 25 25 28 31 21 9 3 6 4 3 6 5 3 4 5 6 3 4 3 5 6 5 4 4 2 1 2 2 4 2 7 7 7 12 9 7 9 13 8 8 9
21 22 23 25 27 23 17 9 7 5 2 7 6 6 7 5 5 4 5 5 3 4 4 3 5 5 10 7 7 11 6 5 2 6 5 7 11 13 9 8 10 8 10 12 12
21 23 24 26 27 28 0 2 4 5 10 11 13 13 16 4 6 9 7 7 6 7 1 4 7 11 10 11 9 9 4 3 5 5 2 12 10 10 10 9 15 15 12 13 7
21 23 25 28 33 4 3 8 7 11 3 9 8 8 5 11 8 11 12 7 5 6 6 7 12 12 11 10 10 5 8 3 7 5 5 5 5 5 7 6 9 12 16 13 14
21 22 23 30 5 7 6 6 14 6 5 10 6 9 7 6 6 9 13 9 4 12 4 7 14 11 5 11 11 5 17 15 19 8 5 2 4 5 7 12 12 13 12 14 15
21 21 20 16 5 5 7 14 17 5 3 5 6 5 9 11 4 4 5 5 11 8 7 11 3 3 2 9 8 1 14 14 15 11 6 1 3 8 4 8 13 13 14 14 17
21 20 19 4 3 9 13 16 3 7 8 6 8 8 7 5 3 2 4 5 6 5 1 10 5 3 10 19 14 15 19 11 7 5 4 5 3 4 8 12 14 10 17 17 14
22 22 12 5 7 2 10 5 6 4 7 5 5 7 8 7 4 4 2 2 7 4 5 7 7 10 21 22 11 7 6 4 7 5 5 6 4 10 16 9 11 16 16 17 14
24 27 6 8 4 5 4 6 4 4 8 7 7 6 10 6 6 5 6 5 7 5 4 6 7 6 7 14 11 6 5 6 7 3 5 5 7 6 13 12 11 10 7 10 14
23 3 4 7 11 2 6 3 9 7 5 10 12 4 3 4 6 7 7 8 11 8 9 6 6 5 13 14 9 3 5 9 10 2 3 4 7 6 4 7 7 5 7 7 15
5 4 6 6 13 5 6 5 6 3 7 8 4 5 3 5 8 10 8 8 13 12 7 6 2 6 5 11 7 12 11 6 5 5 1 5 3 6 5 9 6 8 8 7 8
2 5 5 13 6 6 4 7 5 10 6 3 4 9 4 3 6 7 10 5 14 12 10 6 4 9 5 2 12 2 3 8 7 5 7 3 7 8 11 9 10 10 9 10 9
4 3 4 8 5 3 3 5 5 9 2 6 6 5 9 9 9 6 12 8 12 16 9 9 6 5 12 6 17 8 8 9 6 5 3 6 8 4 11 9 11 11 7 6 8
4 5 5 5 4 3 4 6 8 14 6 5 8 8 4 3 6 11 13 13 18 13 11 7 2 1 12 7 2 14 7 12 5 4 6 7 7 0 8 11 6 11 8 8 9
3 4 5 4 0 5 3 7 9 11 18 18 18 15 16 19 10 17 14 10 10 17 14 12 5 9 9 10 7 10 6 15 11 8 5 6 6 9 14 16 13 12 14 13 13
2 6 1 4 2 4 2 2 12 15 15 12 6 20 18 9 15 11 18 9 11 11 8 10 9 5 5 5 5 12 20 13 9 8 12 12 17 15 16 16 14 16 17 16 14
2 3 5 4 5 4 0 4 11 18 16 21 12 15 17 21 20 22 11 9 9 2 11 3 4 4 3 8 6 6 16 17 9 8 5 15 8 5 13 17 14 13 16 14 12
4 5 2 4 4 2 4 6 13 14 12 13 18 18 20 31 17 15 8 8 11 12 6 9 8 4 5 0 4 1 12 11 7 7 20 19 12 14 15 18 17 14 14 13 11
Wind_Direction
346 342 340 338 336 337 337 338 337 336 337 333 336 331 328 324 314 173 222 173 170 187 166 114 75 74 57 99 153 156 73 282 145 147 139 129 122 132 132 142 159 97 118 135 140
345 341 339 337 335 335 336 337 336 333 334 333 333 331 330 330 308 267 158 163 158 177 140 153 138 174 40 309 137 126 179 226 148 138 140 118 140 140 140 147 125 114 120 140 146
344 340 338 336 334 334 335 333 333 331 331 333 331 330 325 324 323 253 116 151 161 174 162 161 209 132 96 353 329 204 218 142 143 141 140 118 134 126 124 136 147 148 146 151 146
342 340 337 335 332 331 330 327 328 325 327 330 330 328 319 268 200 294 93 162 161 184 167 175 204 354 120 209 334 333 250 195 170 144 140 134 131 132 132 145 151 161 147 151 146
341 340 333 329 325 324 325 324 323 320 320 325 327 331 347 3 251 226 135 133 155 172 193 154 146 211 311 99 275 157 244 121 112 112 108 124 125 120 129 149 155 163 165 166 153
336 328 328 326 324 324 324 322 319 314 314 319 319 320 338 249 246 222 171 140 159 143 192 170 195 207 173 97 83 332 288 81 86 114 123 118 127 123 149 155 166 175 183 170 154
329 329 328 325 325 325 323 320 313 308 308 310 301 280 327 232 192 68 191 212 217 155 209 220 164 127 141 102 10 267 356 24 87 113 121 115 114 138 162 164 177 187 184 167 165
329 329 328 325 325 324 322 315 306 303 305 294 241 194 246 253 309 276 203 276 246 171 185 96 88 118 78 144 59 89 37 40 43 211 232 103 153 154 171 168 184 194 170 149 167
330 330 328 326 325 325 320 311 301 300 273 185 136 155 267 299 163 235 168 224 282 137 198 154 83 92 35 116 57 23 118 156 309 267 128 104 139 175 187 172 165 136 143 147 150
331 329 328 325 325 325 319 304 292 294 172 181 257 352 285 254 256 213 200 222 245 355 129 103 85 85 358 75 160 139 44 269 236 256 87 102 149 173 190 156 148 149 156 154 155
329 327 326 324 323 323 334 347 14 10 103 205 207 259 295 307 334 276 214 254 62 19 211 200 97 178 202 195 164 144 146 199 216 223 100 153 150 175 190 146 164 170 167 174 171
327 326 327 325 320 320 55 347 242 50 304 244 239 244 256 45 310 292 130 171 123 236 105 42 222 209 178 147 146 84 48 289 324 269 121 151 178 181 180 180 180 173 180 179 183
329 328 330 326 318 329 257 243 308 338 263 286 215 229 206 148 214 257 150 189 179 239 238 175 236 150 155 153 143 206 158 240 94 355 87 48 3 194 220 189 192 192 187 183 185
328 329 332 332 16 328 277 301 330 298 48 275 219 254 169 168 279 228 195 152 186 224 215 234 260 169 131 156 161 241 196 171 91 66 152 77 243 260 202 208 197 201 190 196 193
324 325 330 329 278 304 285 334 319 61 339 234 215 191 148 149 202 212 152 78 201 227 115 246 288 62 81 161 135 255 135 149 142 122 90 105 127 246 179 211 214 212 205 202 195
319 317 329 338 253 251 318 305 37 50 254 292 163 174 117 148 247 347 141 103 198 214 202 252 306 211 181 142 122 135 83 54 57 81 30 203 80 267 203 210 218 213 206 205 192
313 304 300 280 236 329 337 16 53 167 318 283 187 146 167 160 237 150 136 184 183 152 260 334 299 298 108 98 141 68 80 44 17 29 208 340 98 235 219 229 203 206 205 205 195
312 308 243 210 217 268 8 55 169 244 276 307 352 113 169 148 240 201 144 211 258 127 112 188 328 216 185 145 164 169 135 137 151 168 275 258 222 245 202 216 218 216 186 198 180
317 323 249 246 187 120 75 115 201 215 314 359 338 124 252 204 163 155 198 204 221 158 169 152 245 287 133 153 121 240 52 162 109 76 48 263 289 353 173 208 213 174 153 150 170
314 325 254 140 146 93 84 224 227 252 40 27 306 7 320 228 177 161 182 204 214 182 155 221 290 227 176 95 21 152 174 94 18 103 249 276 261 203 180 200 183 151 167 160 144
324 342 269 133 120 60 180 222 279 286 8 323 332 341 295 309 245 189 197 257 197 217 162 143 90 282 87 155 149 125 100 49 114 134 160 163 264 208 192 176 168 169 163 157 159
335 339 357 151 87 173 170 185 257 263 245 280 288 239 272 305 299 283 200 212 194 204 170 184 155 221 232 201 163 117 139 109 108 203 223 164 260 275 187 158 157 164 176 164 150
324 271 295 122 171 223 254 222 236 270 257 249 250 205 177 292 321 268 234 217 189 178 183 173 278 246 330 32 179 147 169 169 127 70 220 144 254 190 115 129 132 108 89 75 84
322 320 309 28 179 161 232 254 246 253 249 248 259 270 281 283 231 273 248 206 205 204 168 133 130 161 196 225 149 128 163 167 156 142 185 212 128 131 114 105 106 90 92 89 86
208 252 217 303 324 339 134 286 290 281 276 225 260 231 244 268 282 265 220 204 206 213 132 130 183 165 214 261 170 167 164 164 173 175 154 184 143 154 134 128 122 115 110 101 94
267 2 343 290 301 299 254 241 282 298 277 263 228 253 254 245 235 265 194 192 182 146 153 174 194 157 174 291 70 141 172 174 193 150 144 147 122 154 116 111 109 111 108 101 98
323 348 51 267 302 301 240 279 277 302 286 278 276 281 283 277 220 222 209 213 178 154 145 129 127 97 223 159 87 96 195 212 153 138 140 153 152 143 127 123 126 122 112 112 105